Time,TemperatureF,DewpointF,PressureIn,WindDirection,WindDirectionDegrees,WindSpeedMPH,WindSpeedGustMPH,Humidity,HourlyPrecipIn,Conditions,Clouds,dailyrainin,SoftwareType,DateUTC
2013-04-12 00:03:00,63.0,-99.9,-100.00,SE,142,8.0,-999.0,-999,-99.99,,,0.00,,2013-04-12 04:03:00,
2013-04-12 00:13:00,63.0,-99.9,-100.00,SSE,161,8.0,-999.0,-999,-99.99,,,-99.99,,2013-04-12 04:13:00,
2013-04-12 00:23:00,63.0,-99.9,-100.00,South,190,6.0,-999.0,-999,-99.99,,,0.00,,2013-04-12 04:23:00,
2013-04-12 00:33:00,63.0,-99.9,-100.00,South,190,6.0,-999.0,-999,-99.99,,,0.00,,2013-04-12 04:33:00,
2013-04-12 00:44:00,63.0,-99.9,-100.00,SE,133,11.0,-999.0,-999,-99.99,,,0.00,,2013-04-12 04:44:00,
2013-04-12 00:53:00,64.0,-99.9,-100.00,SSE,163,11.0,-999.0,-999,-99.99,,,0.00,,2013-04-12 04:53:00,
2013-04-12 01:03:00,64.0,-99.9,-100.00,SSE,163,11.0,-999.0,-999,-99.99,,,0.00,,2013-04-12 05:03:00,
2013-04-12 01:12:00,64.0,-99.9,-100.00,SW,221,7.0,-999.0,-999,-99.99,,,-99.99,,2013-04-12 05:12:00,
2013-04-12 01:23:00,64.0,-99.9,-100.00,SW,230,6.0,-999.0,-999,-99.99,,,0.00,,2013-04-12 05:23:00,
2013-04-12 01:32:00,64.0,-99.9,-100.00,SW,230,6.0,-999.0,-999,-99.99,,,0.00,,2013-04-12 05:32:00,
2013-04-12 01:42:00,64.0,-99.9,-100.00,SW,230,6.0,-999.0,-999,-99.99,,,0.00,,2013-04-12 05:42:00,
2013-04-12 02:00:00,64.0,-99.9,-100.00,SSW,203,9.0,-999.0,-999,-99.99,,,0.00,,2013-04-12 06:00:00,
2013-04-12 02:12:00,63.0,-99.9,-100.00,SSW,205,5.0,-999.0,-999,-99.99,,,-99.99,,2013-04-12 06:12:00,
2013-04-12 02:22:00,64.0,-99.9,-100.00,SSW,196,7.0,-999.0,-999,-99.99,,,0.00,,2013-04-12 06:22:00,
2013-04-12 02:32:00,64.0,-99.9,-100.00,SSW,196,7.0,-999.0,-999,-99.99,,,0.00,,2013-04-12 06:32:00,
2013-04-12 02:42:00,64.0,-99.9,-100.00,SSW,203,9.0,-999.0,-999,-99.99,,,0.00,,2013-04-12 06:42:00,
2013-04-12 02:52:00,64.0,-99.9,-100.00,SSW,203,9.0,-999.0,-999,-99.99,,,0.00,,2013-04-12 06:52:00,
2013-04-12 03:12:00,62.0,-99.9,-100.00,West,263,10.0,-999.0,-999,-99.99,,,-99.99,,2013-04-12 07:12:00,
2013-04-12 03:22:00,60.0,-99.9,-100.00,West,266,7.0,-999.0,-999,-99.99,,,0.00,,2013-04-12 07:22:00,
2013-04-12 03:32:00,60.0,-99.9,-100.00,West,266,7.0,-999.0,-999,-99.99,,,0.00,,2013-04-12 07:32:00,
2013-04-12 03:42:00,60.0,-99.9,-100.00,West,262,6.0,-999.0,-999,-99.99,,,0.00,,2013-04-12 07:42:00,
2013-04-12 03:52:00,60.0,-99.9,-100.00,West,276,5.0,-999.0,-999,-99.99,,,0.00,,2013-04-12 07:52:00,
2013-04-12 04:03:00,60.0,-99.9,-100.00,West,276,5.0,-999.0,-999,-99.99,,,0.00,,2013-04-12 08:03:00,
2013-04-12 04:12:00,60.0,-99.9,-100.00,WNW,286,6.0,-999.0,-999,-99.99,,,0.00,,2013-04-12 08:12:00,
2013-04-12 04:22:00,59.0,-99.9,-100.00,NW,305,9.0,-999.0,-999,-99.99,,,0.00,,2013-04-12 08:22:00,
2013-04-12 04:32:00,59.0,-99.9,-100.00,NW,305,9.0,-999.0,-999,-99.99,,,0.00,,2013-04-12 08:32:00,
2013-04-12 04:43:00,58.0,-99.9,-100.00,WNW,285,6.0,-999.0,-999,-99.99,,,0.00,,2013-04-12 08:43:00,
2013-04-12 04:53:00,58.0,-99.9,-100.00,WNW,285,9.0,-999.0,-999,-99.99,,,0.00,,2013-04-12 08:53:00,
2013-04-12 05:03:00,58.0,-99.9,-100.00,WNW,285,9.0,-999.0,-999,-99.99,,,0.00,,2013-04-12 09:03:00,
2013-04-12 05:12:00,57.0,-99.9,-100.00,WNW,288,7.0,-999.0,-999,-99.99,,,0.00,,2013-04-12 09:12:00,
2013-04-12 05:22:00,57.0,-99.9,-100.00,West,273,4.0,-999.0,-999,-99.99,,,0.00,,2013-04-12 09:22:00,
2013-04-12 05:33:00,57.0,-99.9,-100.00,West,273,4.0,-999.0,-999,-99.99,,,0.00,,2013-04-12 09:33:00,
2013-04-12 05:44:00,56.0,-99.9,-100.00,WNW,283,6.0,-999.0,-999,-99.99,,,0.00,,2013-04-12 09:44:00,
2013-04-12 05:53:00,56.0,-99.9,-100.00,WNW,285,7.0,-999.0,-999,-99.99,,,0.00,,2013-04-12 09:53:00,
2013-04-12 06:03:00,56.0,-99.9,-100.00,WNW,285,7.0,-999.0,-999,-99.99,,,0.00,,2013-04-12 10:03:00,
2013-04-12 06:23:00,55.0,-99.9,-100.00,WNW,287,5.0,-999.0,-999,-99.99,,,0.00,,2013-04-12 10:23:00,
2013-04-12 06:34:00,55.0,-99.9,-100.00,WNW,287,5.0,-999.0,-999,-99.99,,,0.00,,2013-04-12 10:34:00,
2013-04-12 06:43:00,55.0,-99.9,-100.00,West,272,5.0,-999.0,-999,-99.99,,,0.00,,2013-04-12 10:43:00,
2013-04-12 06:53:00,55.0,-99.9,-100.00,WNW,294,6.0,-999.0,-999,-99.99,,,0.00,,2013-04-12 10:53:00,
2013-04-12 07:03:00,55.0,-99.9,-100.00,WNW,294,6.0,-999.0,-999,-99.99,,,0.00,,2013-04-12 11:03:00,
2013-04-12 07:13:00,54.0,-99.9,-100.00,WNW,299,6.0,-999.0,-999,-99.99,,,0.00,,2013-04-12 11:13:00,
2013-04-12 07:22:00,53.0,-99.9,-100.00,WNW,291,9.0,-999.0,-999,-99.99,,,0.00,,2013-04-12 11:22:00,
2013-04-12 07:33:00,53.0,-99.9,-100.00,WNW,291,9.0,-999.0,-999,-99.99,,,0.00,,2013-04-12 11:33:00,
2013-04-12 07:43:00,52.0,-99.9,-100.00,WNW,294,11.0,-999.0,-999,-99.99,,,0.00,,2013-04-12 11:43:00,
2013-04-12 07:53:00,51.0,-99.9,-100.00,WNW,295,9.0,-999.0,-999,-99.99,,,0.00,,2013-04-12 11:53:00,
2013-04-12 08:03:00,51.0,-99.9,-100.00,WNW,295,9.0,-999.0,-999,-99.99,,,0.00,,2013-04-12 12:03:00,
2013-04-12 08:13:00,51.0,-99.9,-100.00,WNW,299,8.0,-999.0,-999,-99.99,,,0.00,,2013-04-12 12:13:00,
2013-04-12 08:22:00,50.0,-99.9,-100.00,WNW,292,7.0,-999.0,-999,-99.99,,,0.00,,2013-04-12 12:22:00,
2013-04-12 08:33:00,50.0,-99.9,-100.00,WNW,292,7.0,-999.0,-999,-99.99,,,0.00,,2013-04-12 12:33:00,
2013-04-12 08:43:00,50.0,-99.9,-100.00,WNW,284,5.0,-999.0,-999,-99.99,,,0.00,,2013-04-12 12:43:00,
2013-04-12 08:54:00,50.0,-99.9,-100.00,West,273,5.0,-999.0,-999,-99.99,,,0.00,,2013-04-12 12:54:00,
2013-04-12 09:03:00,50.0,-99.9,-100.00,West,273,5.0,-999.0,-999,-99.99,,,0.00,,2013-04-12 13:03:00,
2013-04-12 09:13:00,50.0,-99.9,-100.00,West,270,3.0,-999.0,-999,-99.99,,,0.00,,2013-04-12 13:13:00,
2013-04-12 09:22:00,50.0,-99.9,-100.00,WSW,258,2.0,-999.0,-999,-99.99,,,0.00,,2013-04-12 13:22:00,
2013-04-12 09:33:00,50.0,-99.9,-100.00,WSW,258,2.0,-999.0,-999,-99.99,,,0.00,,2013-04-12 13:33:00,
2013-04-12 09:43:00,51.0,-99.9,-100.00,West,264,4.0,-999.0,-999,-99.99,,,0.00,,2013-04-12 13:43:00,
2013-04-12 09:53:00,51.0,-99.9,-100.00,West,271,3.0,-999.0,-999,-99.99,,,-99.99,,2013-04-12 13:53:00,
2013-04-12 10:00:00,52.0,-99.9,-100.00,WNW,296,7.0,-999.0,-999,-99.99,,,0.00,,2013-04-12 14:00:00,
2013-04-12 10:04:00,51.0,-99.9,-100.00,West,271,3.0,-999.0,-999,-99.99,,,-99.99,,2013-04-12 14:04:00,
2013-04-12 10:13:00,51.0,-99.9,-100.00,WNW,292,5.0,-999.0,-999,-99.99,,,0.00,,2013-04-12 14:13:00,
2013-04-12 10:23:00,52.0,-99.9,-100.00,WNW,286,7.0,-999.0,-999,-99.99,,,-99.99,,2013-04-12 14:23:00,
2013-04-12 10:33:00,52.0,-99.9,-100.00,WNW,286,7.0,-999.0,-999,-99.99,,,-99.99,,2013-04-12 14:33:00,
2013-04-12 10:43:00,52.0,-99.9,-100.00,WNW,296,7.0,-999.0,-999,-99.99,,,0.00,,2013-04-12 14:43:00,
2013-04-12 10:54:00,52.0,-99.9,-100.00,WNW,296,7.0,-999.0,-999,-99.99,,,0.00,,2013-04-12 14:54:00,
2013-04-12 11:12:00,53.0,-99.9,-100.00,NW,311,6.0,-999.0,-999,-99.99,,,-99.99,,2013-04-12 15:12:00,
2013-04-12 11:22:00,54.0,-99.9,-100.00,WNW,285,7.0,-999.0,-999,-99.99,,,-99.99,,2013-04-12 15:22:00,
2013-04-12 11:33:00,54.0,-99.9,-100.00,WNW,285,7.0,-999.0,-999,-99.99,,,-99.99,,2013-04-12 15:33:00,
2013-04-12 11:43:00,53.0,-99.9,-100.00,NW,305,8.0,-999.0,-999,-99.99,,,0.00,,2013-04-12 15:43:00,
2013-04-12 11:53:00,54.0,-99.9,-100.00,NW,307,8.0,-999.0,-999,-99.99,,,0.00,,2013-04-12 15:53:00,
2013-04-12 12:04:00,54.0,-99.9,-100.00,NW,307,8.0,-999.0,-999,-99.99,,,0.00,,2013-04-12 16:04:00,
2013-04-12 12:14:00,54.0,-99.9,-100.00,WNW,300,9.0,-999.0,-999,-99.99,,,0.00,,2013-04-12 16:14:00,
2013-04-12 12:23:00,54.0,-99.9,-100.00,WNW,298,9.0,-999.0,-999,-99.99,,,-99.99,,2013-04-12 16:23:00,
2013-04-12 12:34:00,54.0,-99.9,-100.00,WNW,298,9.0,-999.0,-999,-99.99,,,-99.99,,2013-04-12 16:34:00,
2013-04-12 12:43:00,55.0,-99.9,-100.00,NW,307,9.0,-999.0,-999,-99.99,,,0.00,,2013-04-12 16:43:00,
2013-04-12 12:54:00,55.0,-99.9,-100.00,West,281,5.0,-999.0,-999,-99.99,,,0.00,,2013-04-12 16:54:00,
2013-04-12 13:00:00,57.0,-99.9,-100.00,West,281,7.0,-999.0,-999,-99.99,,,0.00,,2013-04-12 17:00:00,
2013-04-12 13:04:00,55.0,-99.9,-100.00,West,281,5.0,-999.0,-999,-99.99,,,0.00,,2013-04-12 17:04:00,
2013-04-12 13:13:00,56.0,-99.9,-100.00,WNW,291,6.0,-999.0,-999,-99.99,,,0.00,,2013-04-12 17:13:00,
2013-04-12 13:23:00,57.0,-99.9,-100.00,WNW,299,6.0,-999.0,-999,-99.99,,,-99.99,,2013-04-12 17:23:00,
2013-04-12 13:34:00,57.0,-99.9,-100.00,WNW,299,6.0,-999.0,-999,-99.99,,,-99.99,,2013-04-12 17:34:00,
2013-04-12 13:47:00,57.0,-99.9,-100.00,West,281,7.0,-999.0,-999,-99.99,,,0.00,,2013-04-12 17:47:00,
2013-04-12 14:15:00,59.0,-99.9,-100.00,WNW,290,6.0,-999.0,-999,-99.99,,,-99.99,,2013-04-12 18:15:00,
2013-04-12 15:27:00,59.0,-99.9,-100.00,West,271,7.0,-999.0,-999,-99.99,,,0.00,,2013-04-12 19:27:00,
2013-04-12 15:33:00,60.0,-99.9,-100.00,WNW,297,7.0,-999.0,-999,-99.99,,,-99.99,,2013-04-12 19:33:00,
2013-04-12 15:43:00,60.0,-99.9,-100.00,WNW,296,8.0,-999.0,-999,-99.99,,,0.00,,2013-04-12 19:43:00,
2013-04-12 15:53:00,61.0,-99.9,-100.00,WNW,283,7.0,-999.0,-999,-99.99,,,-99.99,,2013-04-12 19:53:00,
2013-04-12 16:02:00,61.0,-99.9,-100.00,WNW,283,7.0,-999.0,-999,-99.99,,,-99.99,,2013-04-12 20:02:00,
2013-04-12 16:13:00,61.0,-99.9,-100.00,West,270,8.0,-999.0,-999,-99.99,,,0.00,,2013-04-12 20:13:00,
2013-04-12 16:22:00,62.0,-99.9,-100.00,WNW,287,6.0,-999.0,-999,-99.99,,,-99.99,,2013-04-12 20:22:00,
2013-04-12 16:33:00,62.0,-99.9,-100.00,WNW,287,6.0,-999.0,-999,-99.99,,,-99.99,,2013-04-12 20:33:00,
2013-04-12 16:43:00,63.0,-99.9,-100.00,West,272,4.0,-999.0,-999,-99.99,,,0.00,,2013-04-12 20:43:00,
2013-04-12 16:53:00,63.0,-99.9,-100.00,West,259,5.0,-999.0,-999,-99.99,,,-99.99,,2013-04-12 20:53:00,
2013-04-12 17:03:00,63.0,-99.9,-100.00,West,259,5.0,-999.0,-999,-99.99,,,-99.99,,2013-04-12 21:03:00,
2013-04-12 17:12:00,64.0,-99.9,-100.00,West,272,6.0,-999.0,-999,-99.99,,,0.00,,2013-04-12 21:12:00,
2013-04-12 17:22:00,64.0,-99.9,-100.00,West,264,7.0,-999.0,-999,-99.99,,,-99.99,,2013-04-12 21:22:00,
2013-04-12 17:33:00,64.0,-99.9,-100.00,West,264,7.0,-999.0,-999,-99.99,,,-99.99,,2013-04-12 21:33:00,
2013-04-12 17:43:00,64.0,-99.9,-100.00,West,281,9.0,-999.0,-999,-99.99,,,0.00,,2013-04-12 21:43:00,
2013-04-12 17:53:00,64.0,-99.9,-100.00,WNW,288,9.0,-999.0,-999,-99.99,,,0.00,,2013-04-12 21:53:00,
2013-04-12 18:03:00,64.0,-99.9,-100.00,WNW,288,9.0,-999.0,-999,-99.99,,,0.00,,2013-04-12 22:03:00,
2013-04-12 18:13:00,64.0,-99.9,-100.00,WSW,254,8.0,-999.0,-999,-99.99,,,-99.99,,2013-04-12 22:13:00,
2013-04-12 18:23:00,64.0,-99.9,-100.00,WNW,300,8.0,-999.0,-999,-99.99,,,-99.99,,2013-04-12 22:23:00,
2013-04-12 18:33:00,64.0,-99.9,-100.00,WNW,300,8.0,-999.0,-999,-99.99,,,-99.99,,2013-04-12 22:33:00,
2013-04-12 18:43:00,64.0,-99.9,-100.00,WNW,303,7.0,-999.0,-999,-99.99,,,0.00,,2013-04-12 22:43:00,
2013-04-12 18:53:00,64.0,-99.9,-100.00,WNW,303,7.0,-999.0,-999,-99.99,,,0.00,,2013-04-12 22:53:00,
2013-04-12 19:04:00,63.0,-99.9,-100.00,NW,307,9.0,-999.0,-999,-99.99,,,-99.99,,2013-04-12 23:04:00,
2013-04-12 19:12:00,63.0,-99.9,-100.00,NW,313,9.0,-999.0,-999,-99.99,,,0.00,,2013-04-12 23:12:00,
2013-04-12 19:22:00,63.0,-99.9,-100.00,WNW,297,8.0,-999.0,-999,-99.99,,,-99.99,,2013-04-12 23:22:00,
2013-04-12 19:32:00,63.0,-99.9,-100.00,WNW,297,8.0,-999.0,-999,-99.99,,,-99.99,,2013-04-12 23:32:00,
2013-04-12 19:43:00,63.0,-99.9,-100.00,WNW,294,7.0,-999.0,-999,-99.99,,,0.00,,2013-04-12 23:43:00,
2013-04-12 19:52:00,62.0,-99.9,-100.00,WNW,291,6.0,-999.0,-999,-99.99,,,-99.99,,2013-04-12 23:52:00,
2013-04-12 20:02:00,62.0,-99.9,-100.00,WNW,291,6.0,-999.0,-999,-99.99,,,-99.99,,2013-04-13 00:02:00,
2013-04-12 20:12:00,62.0,-99.9,-100.00,WNW,291,6.0,-999.0,-999,-99.99,,,-99.99,,2013-04-13 00:12:00,
2013-04-12 20:22:00,62.0,-99.9,-100.00,WNW,292,5.0,-999.0,-999,-99.99,,,-99.99,,2013-04-13 00:22:00,
2013-04-12 20:32:00,62.0,-99.9,-100.00,WNW,292,5.0,-999.0,-999,-99.99,,,-99.99,,2013-04-13 00:32:00,
2013-04-12 20:42:00,62.0,-99.9,-100.00,WNW,292,5.0,-999.0,-999,-99.99,,,-99.99,,2013-04-13 00:42:00,
2013-04-12 20:52:00,61.0,-99.9,-100.00,WNW,301,3.0,-999.0,-999,-99.99,,,-99.99,,2013-04-13 00:52:00,
2013-04-12 21:02:00,61.0,-99.9,-100.00,WNW,301,3.0,-999.0,-999,-99.99,,,-99.99,,2013-04-13 01:02:00,
2013-04-12 21:13:00,60.0,-99.9,-100.00,NW,307,3.0,-999.0,-999,-99.99,,,-99.99,,2013-04-13 01:13:00,
2013-04-12 21:23:00,59.0,-99.9,-100.00,WNW,302,1.0,-999.0,-999,-99.99,,,-99.99,,2013-04-13 01:23:00,
2013-04-12 21:33:00,59.0,-99.9,-100.00,WNW,302,1.0,-999.0,-999,-99.99,,,-99.99,,2013-04-13 01:33:00,
2013-04-12 21:43:00,55.0,-99.9,-100.00,WSW,252,1.0,-999.0,-999,-99.99,,,-99.99,,2013-04-13 01:43:00,
2013-04-12 21:52:00,55.0,-99.9,-100.00,WSW,252,1.0,-999.0,-999,-99.99,,,-99.99,,2013-04-13 01:52:00,
2013-04-12 22:02:00,55.0,-99.9,-100.00,WSW,252,1.0,-999.0,-999,-99.99,,,-99.99,,2013-04-13 02:02:00,
2013-04-12 22:12:00,55.0,-99.9,-100.00,SW,235,1.0,-999.0,-999,-99.99,,,-99.99,,2013-04-13 02:12:00,
2013-04-12 22:23:00,53.0,-99.9,-100.00,WSW,248,1.0,-999.0,-999,-99.99,,,-99.99,,2013-04-13 02:23:00,
2013-04-12 22:33:00,53.0,-99.9,-100.00,WSW,248,1.0,-999.0,-999,-99.99,,,-99.99,,2013-04-13 02:33:00,
2013-04-12 22:43:00,51.0,-99.9,-100.00,West,277,2.0,-999.0,-999,-99.99,,,-99.99,,2013-04-13 02:43:00,
2013-04-12 22:53:00,51.0,-99.9,-100.00,West,277,2.0,-999.0,-999,-99.99,,,-99.99,,2013-04-13 02:53:00,
2013-04-12 23:03:00,51.0,-99.9,-100.00,West,277,2.0,-999.0,-999,-99.99,,,-99.99,,2013-04-13 03:03:00,
2013-04-12 23:12:00,50.0,-99.9,-100.00,WSW,242,0.0,-999.0,-999,-99.99,,,-99.99,,2013-04-13 03:12:00,
2013-04-12 23:23:00,50.0,-99.9,-100.00,WSW,242,0.0,-999.0,-999,-99.99,,,-99.99,,2013-04-13 03:23:00,
2013-04-12 23:33:00,50.0,-99.9,-100.00,WSW,242,0.0,-999.0,-999,-99.99,,,-99.99,,2013-04-13 03:33:00,
2013-04-12 23:43:00,49.0,-99.9,-100.00,WNW,297,0.0,-999.0,-999,-99.99,,,0.00,,2013-04-13 03:43:00,
2013-04-12 23:54:00,49.0,-99.9,-100.00,WNW,297,0.0,-999.0,-999,-99.99,,,0.00,,2013-04-13 03:54:00,